Location: Arran
(51.9410°N, 101.7372°W)
Time: 10:44:38
(UTC+00:00)

PRISM - Visible Passes

Search period start: 30 November 2023 00:00
Search period end: 10 December 2023 00:00
Orbit: 523 x 543 km, 98.2° (Epoch: 29 November)

Date Brightness Start Highest point End Pass type
(mag) Time Alt. Az. Time Alt. Az. Time Alt. Az.
30 Nov ? 00:42:22 15° NNE 00:42:22 15° NNE 00:43:11 10° N visible
30 Nov ? 13:39:43 10° NE 13:42:12 16° E 13:44:39 10° SE visible
01 Dec ? 00:32:54 13° NNE 00:32:54 13° NNE 00:33:31 10° N visible
01 Dec ? 02:08:16 10° NNW 02:08:16 10° NNW 02:08:16 10° NNW visible
01 Dec ? 13:30:44 10° ENE 13:32:34 13° E 13:34:22 10° ESE visible
02 Dec ? 00:23:24 12° NNE 00:23:24 12° NNE 00:23:45 10° NNE visible
02 Dec ? 01:58:46 10° NNW 01:58:46 10° NNW 01:58:48 10° NNW visible
02 Dec ? 13:22:22 10° E 13:22:52 10° E 13:23:22 10° E visible
03 Dec ? 00:13:50 10° NNE 00:13:50 10° NNE 00:13:53 10° NNE visible
03 Dec ? 01:49:12 10° NNW 01:49:12 10° NNW 01:49:15 10° NNW visible
04 Dec ? 01:39:36 10° NNW 01:39:36 10° NNW 01:39:38 10° NNW visible
05 Dec ? 01:29:56 10° NNW 01:29:56 10° NNW 01:29:57 10° NNW visible
08 Dec ? 13:56:18 10° NE 13:59:19 22° E 14:02:18 10° SE visible
09 Dec ? 13:46:45 10° NE 13:49:22 17° E 13:51:58 10° SE visible
